TimeEDT,TemperatureF,Dew PointF,Humidity,Sea Level PressureIn,VisibilityMPH,Wind Direction,Wind SpeedMPH,Gust SpeedMPH,PrecipitationIn,Events,Conditions,WindDirDegrees,DateUTC
12:14 AM,40.1,36.3,86,29.67,7.0,WNW,9.2,-,N/A,,Overcast,290,2012-11-01 04:14:00
12:34 AM,40.1,36.5,87,29.67,3.0,WNW,11.5,-,N/A,,Overcast,300,2012-11-01 04:34:00
1:14 AM,39.7,36.5,88,29.66,3.0,WNW,11.5,18.4,N/A,,Overcast,290,2012-11-01 05:14:00
1:35 AM,39.9,36.9,89,29.66,3.0,WNW,12.7,-,N/A,,Overcast,300,2012-11-01 05:35:00
2:14 AM,39.7,36.5,88,29.66,10.0,WNW,12.7,19.6,N/A,,Overcast,290,2012-11-01 06:14:00
2:35 AM,39.7,36.5,88,29.66,10.0,WNW,11.5,18.4,N/A,,Overcast,300,2012-11-01 06:35:00
2:55 AM,39.7,36.1,87,29.66,10.0,WNW,12.7,16.1,N/A,,Overcast,290,2012-11-01 06:55:00
3:14 AM,39.7,35.6,85,29.66,10.0,WNW,11.5,18.4,N/A,,Overcast,300,2012-11-01 07:14:00
3:35 AM,39.9,35.1,83,29.66,10.0,WNW,13.8,21.9,N/A,,Overcast,300,2012-11-01 07:35:00
3:55 AM,39.7,34.7,82,29.66,10.0,WNW,16.1,24.2,N/A,,Overcast,290,2012-11-01 07:55:00
4:14 AM,39.7,34.7,82,29.66,10.0,WNW,13.8,19.6,N/A,,Overcast,290,2012-11-01 08:14:00
4:35 AM,39.7,33.8,79,29.66,10.0,WNW,13.8,19.6,N/A,,Overcast,300,2012-11-01 08:35:00
4:55 AM,39.6,33.8,80,29.66,10.0,WNW,12.7,20.7,N/A,,Overcast,300,2012-11-01 08:55:00
5:14 AM,39.6,33.6,79,29.66,10.0,WNW,13.8,19.6,N/A,,Overcast,290,2012-11-01 09:14:00
5:33 AM,39.6,33.4,79,29.67,10.0,WNW,11.5,19.6,N/A,,Overcast,300,2012-11-01 09:33:00
6:15 AM,39.2,32.9,78,29.68,10.0,WNW,11.5,-,N/A,,Overcast,300,2012-11-01 10:15:00
6:34 AM,39.2,32.4,76,29.68,10.0,WNW,11.5,19.6,N/A,,Overcast,300,2012-11-01 10:34:00
6:55 AM,39.2,32.2,76,29.68,10.0,WNW,15.0,-,N/A,,Overcast,290,2012-11-01 10:55:00
7:14 AM,39.0,32.2,76,29.68,10.0,West,15.0,19.6,N/A,,Overcast,280,2012-11-01 11:14:00
7:35 AM,39.2,32.0,75,29.69,10.0,WNW,16.1,24.2,N/A,,Overcast,290,2012-11-01 11:35:00
7:55 AM,38.8,32.0,76,29.69,10.0,West,13.8,-,N/A,,Overcast,280,2012-11-01 11:55:00
8:14 AM,38.5,32.0,78,29.70,10.0,WNW,17.3,-,N/A,,Overcast,290,2012-11-01 12:14:00
8:35 AM,37.6,32.0,80,29.71,10.0,WNW,9.2,-,N/A,,Mostly Cloudy,300,2012-11-01 12:35:00
8:55 AM,36.7,31.8,83,29.71,10.0,WNW,10.4,16.1,N/A,,Scattered Clouds,290,2012-11-01 12:55:00
9:35 AM,38.8,32.0,76,29.71,10.0,West,16.1,19.6,N/A,,Scattered Clouds,280,2012-11-01 13:35:00
9:55 AM,39.9,32.0,73,29.71,10.0,WNW,17.3,21.9,N/A,,Scattered Clouds,290,2012-11-01 13:55:00
10:14 AM,40.6,32.0,71,29.72,10.0,WNW,15.0,21.9,N/A,,Scattered Clouds,290,2012-11-01 14:14:00
10:35 AM,40.8,31.5,69,29.72,10.0,WNW,15.0,24.2,N/A,,Mostly Cloudy,300,2012-11-01 14:35:00
10:54 AM,40.5,29.5,65,29.73,10.0,WNW,18.4,26.5,N/A,,Overcast,300,2012-11-01 14:54:00
11:15 AM,40.1,28.4,63,29.73,10.0,WNW,17.3,25.3,N/A,,Overcast,300,2012-11-01 15:15:00
11:35 AM,40.3,28.8,63,29.73,10.0,WNW,16.1,24.2,N/A,,Overcast,290,2012-11-01 15:35:00
11:54 AM,41.2,29.1,62,29.73,10.0,WNW,15.0,21.9,N/A,,Overcast,290,2012-11-01 15:54:00
12:15 PM,41.7,29.3,61,29.73,10.0,WNW,15.0,18.4,N/A,,Overcast,300,2012-11-01 16:15:00
12:35 PM,42.3,28.9,59,29.73,10.0,WNW,12.7,19.6,N/A,,Overcast,290,2012-11-01 16:35:00
12:54 PM,42.4,28.6,58,29.72,10.0,West,16.1,19.6,N/A,,Overcast,280,2012-11-01 16:54:00
1:15 PM,42.8,29.1,58,29.72,10.0,West,15.0,18.4,N/A,,Overcast,280,2012-11-01 17:15:00
1:35 PM,43.7,29.3,57,29.71,10.0,WNW,12.7,-,N/A,,Overcast,290,2012-11-01 17:35:00
2:15 PM,45.3,28.9,53,29.70,10.0,West,13.8,-,N/A,,Scattered Clouds,280,2012-11-01 18:15:00
2:34 PM,45.7,27.7,49,29.70,10.0,West,12.7,18.4,N/A,,Scattered Clouds,270,2012-11-01 18:34:00
2:54 PM,45.5,27.9,50,29.70,10.0,WNW,12.7,21.9,N/A,,Mostly Cloudy,300,2012-11-01 18:54:00
3:15 PM,46.6,27.9,48,29.69,10.0,NW,12.7,19.6,N/A,,Scattered Clouds,310,2012-11-01 19:15:00
3:34 PM,46.6,27.1,47,29.69,10.0,WNW,16.1,20.7,N/A,,Scattered Clouds,290,2012-11-01 19:34:00
3:55 PM,46.6,27.7,48,29.69,10.0,NW,13.8,18.4,N/A,,Mostly Cloudy,310,2012-11-01 19:55:00
4:15 PM,48.2,28.6,47,29.70,10.0,WNW,13.8,19.6,N/A,,Overcast,300,2012-11-01 20:15:00
4:34 PM,46.8,25.7,44,29.70,10.0,WNW,12.7,26.5,N/A,,Mostly Cloudy,300,2012-11-01 20:34:00
4:55 PM,45.9,27.0,48,29.70,10.0,WNW,12.7,19.6,N/A,,Mostly Cloudy,300,2012-11-01 20:55:00
5:14 PM,46.6,26.2,45,29.70,10.0,NW,15.0,19.6,N/A,,Overcast,320,2012-11-01 21:14:00
5:35 PM,46.6,26.4,45,29.70,10.0,WNW,16.1,24.2,N/A,,Overcast,290,2012-11-01 21:35:00
5:54 PM,45.5,26.6,48,29.71,10.0,NW,9.2,17.3,N/A,,Overcast,310,2012-11-01 21:54:00
6:15 PM,44.8,27.1,50,29.71,10.0,NW,8.1,-,N/A,,Overcast,320,2012-11-01 22:15:00
6:35 PM,43.3,27.3,53,29.72,10.0,WNW,6.9,-,N/A,,Mostly Cloudy,300,2012-11-01 22:35:00
6:54 PM,41.4,27.3,57,29.72,10.0,WNW,4.6,-,N/A,,Scattered Clouds,290,2012-11-01 22:54:00
7:15 PM,41.4,28.4,60,29.73,10.0,West,4.6,-,N/A,,Mostly Cloudy,280,2012-11-01 23:15:00
7:34 PM,42.1,28.2,58,29.73,10.0,WSW,3.5,-,N/A,,Overcast,250,2012-11-01 23:34:00
7:54 PM,42.4,29.7,61,29.74,10.0,West,8.1,-,N/A,,Overcast,270,2012-11-01 23:54:00
8:14 PM,41.9,26.6,55,29.75,10.0,WNW,11.5,-,N/A,,Mostly Cloudy,300,2012-11-02 00:14:00
8:34 PM,41.4,26.1,55,29.75,10.0,WNW,11.5,-,N/A,,Scattered Clouds,300,2012-11-02 00:34:00
8:55 PM,41.0,26.1,55,29.76,10.0,WNW,10.4,-,N/A,,Scattered Clouds,300,2012-11-02 00:55:00
9:14 PM,40.5,26.6,58,29.76,10.0,WNW,12.7,-,N/A,,Mostly Cloudy,300,2012-11-02 01:14:00
9:34 PM,40.5,27.7,60,29.77,10.0,WNW,11.5,-,N/A,,Overcast,300,2012-11-02 01:34:00
9:55 PM,40.1,27.7,61,29.78,10.0,WNW,9.2,-,N/A,,Overcast,300,2012-11-02 01:55:00
10:14 PM,39.2,27.3,62,29.78,10.0,WNW,10.4,-,N/A,,Overcast,300,2012-11-02 02:14:00
10:35 PM,39.0,26.6,61,29.78,10.0,WNW,8.1,-,N/A,,Overcast,300,2012-11-02 02:35:00
10:55 PM,38.8,26.2,61,29.78,10.0,WNW,9.2,-,N/A,,Overcast,300,2012-11-02 02:55:00
11:14 PM,38.5,25.7,60,29.78,10.0,WNW,8.1,-,N/A,,Overcast,300,2012-11-02 03:14:00
11:35 PM,39.2,25.5,58,29.78,10.0,WNW,9.2,-,N/A,,Overcast,300,2012-11-02 03:35:00
11:55 PM,38.8,25.7,59,29.78,10.0,WNW,8.1,-,N/A,,Overcast,300,2012-11-02 03:55:00